This demonstration page uses our WeatherBlox Daily Observations layout. Learn more.

Left ArrowRight Arrow

38.80484, -77.04692

Hourly Observations for November 9, 2015

Temp ( °F °C ) Dew Point ( °F °C ) Humidity (%) Winds ( mph kmh ) Pressure ( in mb ) Visibility ( mi km ) Precip ( " mm )
12:52 am 00:52 Clear 46 7.8 37 2.8 71 71 Calm 30.46 1031 10 16 0.00 0.00
1:52 am 01:52 Partly Cloudy 44 6.7 37 2.8 76 76 Calm 30.44 1031 10 16 0.00 0.00
2:52 am 02:52 Mostly Cloudy 43 6.1 38 3.3 82 82 ENE 5 7 30.43 1030 10 16 0.00 0.00
3:52 am 03:52 Mostly Cloudy 43 6.1 38 3.3 82 82 ENE 5 7 30.43 1030 10 16 0.00 0.00
4:52 am 04:52 Mostly Cloudy 42 5.6 36 2.2 79 79 Calm 30.43 1031 10 16 0.00 0.00
5:52 am 05:52 Mostly Cloudy 42 5.6 37 2.8 82 82 Calm 30.44 1031 10 16 0.00 0.00
6:52 am 06:52 Mostly Cloudy 42 5.6 38 3.3 85 85 NE 6 9 30.46 1031 10 16 0.00 0.00
7:52 am 07:52 Mostly Cloudy 43 6.1 38 3.3 82 82 ENE 3 6 30.47 1032 10 16 0.00 0.00
8:52 am 08:52 Mostly Cloudy 46 7.8 38 3.3 73 73 NE 3 6 30.47 1032 10 16 0.00 0.00
9:52 am 09:52 Cloudy 49 9.4 37 2.8 64 64 NE 6 9 30.45 1031 10 16 0.00 0.00
10:52 am 10:52 Cloudy 51 10.6 38 3.3 61 61 NNE 6 9 30.45 1031 10 16 0.00 0.00
11:52 am 11:52 Cloudy 51 10.6 40 4.4 66 66 NE 6 9 30.41 1030 10 16 0.00 0.00
12:52 pm 12:52 Cloudy 52 11.1 40 4.4 64 64 N 8 13 30.40 1029 10 16 0.00 0.00
1:52 pm 13:52 Cloudy 53 11.7 41 5 64 64 NNE 8 13 30.38 1029 10 16 0.00 0.00
2:52 pm 14:52 Cloudy with Light Rain 53 11.7 41 5 64 64 NNE 9 15 30.36 1028 10 16 0.00 0.03
3:52 pm 15:52 Cloudy 53 11.7 41 5 64 64 NNE 9 15 30.34 1028 10 16 0.00 0.03
4:35 pm 16:35 Cloudy with Light Rain 53 11.7 42 5.6 66 66 NE 8 13 30.33 1027 10 16 0.00 0.03
4:52 pm 16:52 Cloudy with Light Rain 53 11.7 42 5.6 66 66 NE 6 9 30.33 1027 10 16 0.00 0.03
5:52 pm 17:52 Cloudy with Light Rain 52 11.1 44 6.7 75 75 NNE 9 15 30.32 1027 10 16 0.01 0.25
6:52 pm 18:52 Cloudy 52 11.1 44 6.7 75 75 N 12 19 30.32 1027 10 16 0.00 0.03
6:59 pm 18:59 Mostly Cloudy 52 11.1 44 6.7 75 75 N 12 19 30.33 1027 10 16 0.00 0.00
7:07 pm 19:07 Cloudy with Light Rain 52 11.1 44 6.7 75 75 N 8 13 30.33 1027 10 16 0.00 0.03
7:52 pm 19:52 Cloudy with Light Rain 51 10.6 45 7.2 80 80 N 12 19 30.31 1026 10 16 0.01 0.25
8:52 pm 20:52 Cloudy with Light Rain 51 10.6 47 8.3 86 86 NNE 12 19 30.32 1027 9 14 0.03 0.76
9:47 pm 21:47 Cloudy with Rain 50 10 48 9 94 94 NNE 8 13 30.30 1026 5 8 0.15 3.81
9:52 pm 21:52 Cloudy with Rain 50 10 47 8.3 89 89 NE 10 17 30.28 1026 5 8 0.16 4.06
10:10 pm 22:10 Cloudy with Rain 50 10 48 9 94 94 NE 12 19 30.27 1025 4 6 0.00 0.00
10:52 pm 22:52 Cloudy with Rain 50 10 48 8.9 93 93 NE 14 22 30.22 1023 4 6 0.13 3.30
11:22 pm 23:22 Cloudy with Rain 50 10 48 9 94 94 NE 9 15 30.21 1023 4 6 0.00 0.00
11:29 pm 23:29 Cloudy with Rain 51 10.6 49 9.4 92 92 NE 9 15 30.18 1022 4 6 0.16 4.06
11:52 pm 23:52 Cloudy with Light Rain 51 10.6 50 10 96 96 NE 8 13 30.16 1022 5 8 0.19 4.83

Powered by AerisWeather